Weather in Yantarnyy

Russia / Rostov Oblast     47°17′17″N   39°49′34″E
temp.,
°C
wind,
m/s
gust,
m/s
humid.,
%
clouds,
%
prec.,
mm/h
press.,
hPa
HPBL,
m
15 may, sat
sat1500:00+19w12878 0.0 101125
03:00+18n23862 0.0 101156
06:00+16nw25764 0.8 1012115
09:00+23nne234721 0.8 1013312
12:00+28nnw11365 0.0 10131110
15:00+29wnw21334 0.0 10131811
18:00+25w34515 0.0 1013300
21:00+21wnw24565 0.0 101386
16 may, sun
sun1600:00+20nnw356436 0.0 1012122
03:00+18nne3768100 0.0 1011138
06:00+18ne3773100 0.0 1011199
09:00+22ene5752100 0.0 1010459
12:00+25e574399 0.0 1010738
15:00+26e71041100 0.0 10081116
18:00+25e41051100 0.0 1007956
21:00+22ene41169100 0.0 1006298
17 may, mon
mon1700:00+19e616520 0.0 1005460
03:00+17e614565 0.0 1005412
06:00+16e511585 0.0 1006351
09:00+21ese46525 0.0 1007571
12:00+25s3447100 0.0 10081074
15:00+27sse3449100 0.0 10071320
18:00+22wsw3677100 1.1 1008522
21:00+19w3684100 1.1 1010259
18 may, tue
tue1800:00+17wsw41085100 0.4 1010348
03:00+16wsw1388100 0.5 1011188
06:00+16sw4891100 0.1 1011308
09:00+19wsw576954 0.1 1012797
12:00+23w56549 0.1 10121512
15:00+23wsw565050 0.7 10121773
18:00+21wsw575971 0.1 10121016
21:00+18sw387897 0.1 1013420
19 may, wed
wed1900:00+16sw411795 0.0 1013543
03:00+15sw310865 0.0 1013380
06:00+15sw310865 0.1 1014336
09:00+19sw466763 0.1 1014709
12:00+24sw465078 0.0 10131436
15:00+25ssw4546100 0.0 10121885
18:00+24sse4655100 0.0 10111195
21:00+20se4107598 0.1 1011380